• In Hungary
  • List of Countries
  • For 7 days
  • Water Temperature
  • Satellite Maps
  • Weather Map
  • News
  • Weather Widgets
  • user-avatar
    Login

    Hourly Weather Jawory

    Today, 24 September, Monday

    Time Temperature Precipitation Wind Pressure Humidity
    00:00 +10°C° 0.4 mm 4 mps 747 mmHg 82%
    01:00 +10°C° 0 mm 4 mps 747 mmHg 83%
    02:00 +9°C° 0.3 mm 5 mps 748 mmHg 83%
    03:00 +8°C° 0.3 mm 5 mps 748 mmHg 83%
    04:00 +8°C° 0.3 mm 5 mps 748 mmHg 83%
    05:00 +8°C° 0.2 mm 5 mps 749 mmHg 80%
    06:00 +9°C° 0.2 mm 6 mps 749 mmHg 78%
    07:00 +9°C° 0.2 mm 6 mps 749 mmHg 76%
    08:00 +10°C° 0.4 mm 6 mps 750 mmHg 71%
    09:00 +10°C° 0.4 mm 7 mps 751 mmHg 66%
    10:00 +11°C° 0.4 mm 8 mps 751 mmHg 60%
    11:00 +11°C° 0.5 mm 8 mps 752 mmHg 59%
    12:00 +11°C° 0.5 mm 8 mps 753 mmHg 57%
    13:00 +11°C° 0.5 mm 7 mps 754 mmHg 55%
    14:00 +11°C° 0.1 mm 7 mps 755 mmHg 53%
    15:00 +11°C° 0.1 mm 7 mps 755 mmHg 51%
    16:00 +11°C° 0.1 mm 6 mps 756 mmHg 48%
    17:00 +10°C° 0.1 mm 6 mps 756 mmHg 51%
    18:00 +9°C° 0.1 mm 5 mps 757 mmHg 54%
    19:00 +8°C° 0.1 mm 4 mps 758 mmHg 57%
    20:00 +8°C° 0.3 mm 5 mps 758 mmHg 58%
    21:00 +8°C° 0.3 mm 5 mps 759 mmHg 58%
    22:00 +8°C° 0.3 mm 5 mps 759 mmHg 59%
    23:00 +8°C° 0.1 mm 5 mps 760 mmHg 61%

    Tomorrow, 25 September, Tuesday

    Time Temperature Precipitation Wind Pressure Humidity
    00:00 +7°C° 0.1 mm 5 mps 760 mmHg 63%
    01:00 +7°C° 0.1 mm 4 mps 761 mmHg 65%
    02:00 +7°C° 0 mm 5 mps 761 mmHg 65%
    03:00 +6°C° 0 mm 5 mps 762 mmHg 65%
    04:00 +6°C° 0 mm 5 mps 763 mmHg 65%
    05:00 +7°C° 0 mm 5 mps 763 mmHg 63%
    06:00 +7°C° 0 mm 5 mps 764 mmHg 61%
    07:00 +7°C° 0 mm 5 mps 765 mmHg 59%
    08:00 +9°C° 0 mm 6 mps 765 mmHg 53%
    09:00 +10°C° 0 mm 6 mps 766 mmHg 48%
    10:00 +11°C° 0 mm 7 mps 767 mmHg 42%
    11:00 +11°C° 0 mm 7 mps 767 mmHg 40%
    12:00 +13°C° 0 mm 6 mps 767 mmHg 39%
    13:00 +13°C° 0 mm 6 mps 767 mmHg 37%
    14:00 +13°C° 0 mm 5 mps 767 mmHg 38%
    15:00 +12°C° 0 mm 5 mps 768 mmHg 40%
    16:00 +12°C° 0 mm 4 mps 768 mmHg 42%
    17:00 +11°C° 0 mm 3 mps 768 mmHg 48%
    18:00 +10°C° 0 mm 3 mps 768 mmHg 54%
    19:00 +8°C° 0 mm 2 mps 768 mmHg 60%
    20:00 +8°C° 0 mm 3 mps 768 mmHg 63%
    21:00 +8°C° 0 mm 3 mps 768 mmHg 67%
    22:00 +8°C° 0 mm 3 mps 768 mmHg 70%
    23:00 +7°C° 0 mm 4 mps 768 mmHg 70%

    Day after tomorrow, 26 September, Wednesday

    Time Temperature Precipitation Wind Pressure Humidity
    00:00 +7°C° 0 mm 4 mps 768 mmHg 70%
    01:00 +7°C° 0 mm 4 mps 768 mmHg 70%
    02:00 +7°C° 0 mm 5 mps 768 mmHg 70%
    03:00 +7°C° 0 mm 5 mps 767 mmHg 69%
    04:00 +7°C° 0 mm 6 mps 767 mmHg 69%
    05:00 +7°C° 0 mm 6 mps 767 mmHg 67%
    06:00 +7°C° 0 mm 6 mps 766 mmHg 66%
    07:00 +6°C° 0 mm 7 mps 766 mmHg 64%
    08:00 +8°C° 0.1 mm 7 mps 765 mmHg 61%
    09:00 +9°C° 0.1 mm 8 mps 765 mmHg 59%
    10:00 +10°C° 0.1 mm 9 mps 765 mmHg 56%
    11:00 +10°C° 0.4 mm 9 mps 764 mmHg 59%
    12:00 +10°C° 0.4 mm 8 mps 764 mmHg 62%
    13:00 +10°C° 0.4 mm 8 mps 763 mmHg 65%
    14:00 +10°C° 0.1 mm 9 mps 763 mmHg 64%
    15:00 +10°C° 0.1 mm 9 mps 762 mmHg 63%
    16:00 +11°C° 0.1 mm 9 mps 761 mmHg 61%
    17:00 +11°C° 0.1 mm 9 mps 761 mmHg 62%
    18:00 +11°C° 0.1 mm 9 mps 760 mmHg 62%
    19:00 +12°C° 0.1 mm 9 mps 760 mmHg 62%
    20:00 +12°C° 0.1 mm 9 mps 760 mmHg 63%
    21:00 +12°C° 0.1 mm 9 mps 760 mmHg 65%
    22:00 +12°C° 0.1 mm 9 mps 759 mmHg 67%
    23:00 +13°C° 0.1 mm 9 mps 759 mmHg 71%

    27 September, Thursday

    Time Temperature Precipitation Wind Pressure Humidity
    00:00 +13°C° 0.1 mm 9 mps 759 mmHg 75%
    01:00 +13°C° 0.1 mm 9 mps 758 mmHg 79%
    02:00 +13°C° 0.1 mm 9 mps 758 mmHg 81%
    03:00 +13°C° 0.1 mm 9 mps 758 mmHg 83%
    04:00 +15°C° 0.1 mm 9 mps 758 mmHg 85%
    05:00 +15°C° 0 mm 9 mps 758 mmHg 85%
    06:00 +15°C° 0 mm 9 mps 758 mmHg 85%
    07:00 +15°C° 0 mm 9 mps 758 mmHg 85%
    08:00 +15°C° 0.1 mm 9 mps 758 mmHg 84%
    09:00 +16°C° 0.1 mm 9 mps 758 mmHg 83%
    10:00 +16°C° 0.1 mm 9 mps 759 mmHg 82%
    11:00 +16°C° 0.1 mm 9 mps 759 mmHg 82%
    12:00 +16°C° 0.1 mm 9 mps 759 mmHg 82%
    13:00 +16°C° 0.1 mm 9 mps 759 mmHg 82%
    14:00 +16°C° 0.1 mm 8 mps 759 mmHg 82%
    15:00 +16°C° 0.1 mm 8 mps 759 mmHg 82%
    16:00 +16°C° 0.1 mm 8 mps 759 mmHg 82%
    17:00 +16°C° 0 mm 7 mps 759 mmHg 84%
    18:00 +15°C° 0 mm 6 mps 759 mmHg 86%
    19:00 +15°C° 0 mm 6 mps 758 mmHg 88%
    20:00 +15°C° 0 mm 6 mps 758 mmHg 88%
    21:00 +15°C° 0 mm 6 mps 758 mmHg 88%
    22:00 +15°C° 0 mm 6 mps 757 mmHg 88%
    23:00 +15°C° 0 mm 6 mps 757 mmHg 88%

    28 September, Friday

    Time Temperature Precipitation Wind Pressure Humidity
    00:00 +15°C° 0 mm 7 mps 756 mmHg 89%
    01:00 +15°C° 0 mm 7 mps 755 mmHg 89%
    02:00 +15°C° 0 mm 7 mps 755 mmHg 87%
    03:00 +15°C° 0 mm 7 mps 754 mmHg 85%
    04:00 +13°C° 0 mm 8 mps 753 mmHg 83%
    05:00 +13°C° 0 mm 8 mps 753 mmHg 81%
    06:00 +13°C° 0 mm 8 mps 753 mmHg 80%
    07:00 +13°C° 0 mm 8 mps 753 mmHg 78%
    08:00 +13°C° 0.1 mm 8 mps 753 mmHg 76%
    09:00 +14°C° 0.1 mm 7 mps 753 mmHg 74%
    10:00 +14°C° 0.1 mm 7 mps 753 mmHg 72%
    11:00 +15°C° 0 mm 7 mps 754 mmHg 66%
    12:00 +15°C° 0 mm 7 mps 754 mmHg 61%
    13:00 +15°C° 0 mm 7 mps 754 mmHg 56%
    14:00 +14°C° 0.1 mm 6 mps 755 mmHg 58%
    15:00 +14°C° 0.1 mm 5 mps 755 mmHg 61%
    16:00 +13°C° 0.1 mm 5 mps 755 mmHg 63%
    17:00 +12°C° 0.1 mm 4 mps 755 mmHg 68%
    18:00 +11°C° 0.1 mm 3 mps 756 mmHg 73%
    19:00 +10°C° 0.1 mm 3 mps 756 mmHg 78%
    20:00 +10°C° 0.2 mm 2 mps 756 mmHg 80%
    21:00 +9°C° 0.2 mm 2 mps 757 mmHg 82%
    22:00 +9°C° 0.2 mm 2 mps 757 mmHg 84%
    23:00 +9°C° 0.3 mm 2 mps 758 mmHg 83%

    29 September, Saturday

    Time Temperature Precipitation Wind Pressure Humidity
    00:00 +9°C° 0.3 mm 2 mps 758 mmHg 83%
    01:00 +9°C° 0.3 mm 2 mps 758 mmHg 82%
    02:00 +9°C° 0.1 mm 2 mps 759 mmHg 83%
    03:00 +8°C° 0.1 mm 2 mps 760 mmHg 83%
    04:00 +8°C° 0.1 mm 2 mps 760 mmHg 84%
    05:00 +8°C° 0 mm 2 mps 761 mmHg 81%
    06:00 +8°C° 0 mm 2 mps 761 mmHg 78%
    07:00 +8°C° 0 mm 2 mps 762 mmHg 76%
    08:00 +10°C° 0 mm 2 mps 763 mmHg 67%
    09:00 +12°C° 0 mm 2 mps 763 mmHg 58%
    10:00 +12°C° 0 mm 3 mps 764 mmHg 50%
    11:00 +13°C° 0 mm 3 mps 764 mmHg 47%
    12:00 +13°C° 0 mm 3 mps 764 mmHg 44%
    13:00 +14°C° 0 mm 3 mps 765 mmHg 42%
    14:00 +14°C° 0 mm 2 mps 765 mmHg 43%
    15:00 +14°C° 0 mm 2 mps 765 mmHg 44%
    16:00 +14°C° 0 mm 2 mps 765 mmHg 45%
    17:00 +12°C° 0 mm 2 mps 765 mmHg 50%
    18:00 +11°C° 0 mm 1 mps 765 mmHg 55%
    19:00 +9°C° 0 mm 1 mps 765 mmHg 60%
    20:00 +9°C° 0 mm 1 mps 765 mmHg 62%
    21:00 +9°C° 0 mm 1 mps 765 mmHg 63%
    22:00 +7°C° 0 mm 2 mps 766 mmHg 65%
    23:00 +7°C° 0 mm 2 mps 765 mmHg 66%
    Show more